| time (UTC) | temp C | wind direction | speed KPH | gust KPH | rain 1hr cm | rain 24hr cm | rain mn cm | humidity % | barometer mb |
| 20260507223531 | 16 | 250 | 0.0 | 8.0 | 0.00 | 0.25 | 0.03 | 33 | 1001.6 |
| 20260507223031 | 16 | 333 | 0.0 | 17.7 | 0.00 | 0.25 | 0.03 | 34 | 1001.6 |
| 20260507222531 | 16 | 259 | 1.6 | 17.7 | 0.00 | 0.25 | 0.03 | 34 | 1001.6 |
| 20260507222030 | 16 | 279 | 0.0 | 8.0 | 0.00 | 0.28 | 0.03 | 34 | 1001.4 |
| 20260507221533 | 16 | 291 | 0.0 | 8.0 | 0.00 | 0.28 | 0.03 | 35 | 1001.4 |
| 20260507221030 | 16 | 251 | 0.0 | 14.5 | 0.00 | 0.28 | 0.03 | 35 | 1001.4 |
| 20260507220530 | 16 | 334 | 1.6 | 19.3 | 0.00 | 0.28 | 0.03 | 33 | 1001.4 |
| 20260507220030 | 17 | 273 | 1.6 | 19.3 | 0.00 | 0.28 | 0.03 | 34 | 1001.4 |
| 20260507215531 | 17 | 311 | 1.6 | 12.9 | 0.00 | 0.28 | 0.03 | 33 | 1001.4 |
| 20260507215029 | 17 | 301 | 1.6 | 11.3 | 0.00 | 0.28 | 0.03 | 33 | 1001.3 |
| 20260507214529 | 17 | 264 | 1.6 | 12.9 | 0.00 | 0.28 | 0.03 | 36 | 1001.3 |
| 20260507214028 | 17 | 236 | 1.6 | 16.1 | 0.00 | 0.28 | 0.03 | 32 | 1001.3 |
| 20260507213528 | 17 | 280 | 1.6 | 16.1 | 0.00 | 0.28 | 0.03 | 35 | 1001.2 |
| 20260507213030 | 17 | 288 | 0.0 | 12.9 | 0.00 | 0.28 | 0.03 | 36 | 1001.2 |
| 20260507212527 | 17 | 274 | 0.0 | 12.9 | 0.00 | 0.28 | 0.03 | 32 | 1001.2 |
| 20260507212028 | 18 | 324 | 1.6 | 8.0 | 0.00 | 0.43 | 0.03 | 33 | 1001.2 |
| 20260507211528 | 18 | 305 | 0.0 | 8.0 | 0.00 | 0.43 | 0.03 | 34 | 1001.2 |
| 20260507211029 | 18 | 291 | 0.0 | 14.5 | 0.00 | 0.43 | 0.03 | 34 | 1001.2 |
| 20260507210527 | 18 | 312 | 0.0 | 14.5 | 0.00 | 0.43 | 0.03 | 33 | 1001.4 |
| 20260507210027 | 17 | 349 | 1.6 | 14.5 | 0.00 | 0.43 | 0.03 | 32 | 1001.4 |
| 20260507205527 | 18 | 223 | 4.8 | 14.5 | 0.00 | 0.43 | 0.03 | 31 | 1001.4 |
| 20260507205027 | 18 | 236 | 1.6 | 8.0 | 0.00 | 0.43 | 0.03 | 32 | 1001.2 |
| 20260507204526 | 18 | 316 | 0.0 | 6.4 | 0.00 | 0.43 | 0.03 | 34 | 1001.2 |
| 20260507204027 | 18 | 302 | 0.0 | 12.9 | 0.00 | 0.43 | 0.03 | 34 | 1001.2 |
| 20260507203526 | 18 | 275 | 1.6 | 12.9 | 0.00 | 0.43 | 0.03 | 31 | 1001.3 |
| 20260507203027 | 17 | 315 | 1.6 | 20.9 | 0.00 | 0.43 | 0.03 | 31 | 1001.3 |
| 20260507202525 | 17 | 302 | 0.0 | 20.9 | 0.00 | 0.43 | 0.03 | 33 | 1001.3 |
| 20260507202025 | 18 | 261 | 0.0 | 16.1 | 0.00 | 0.53 | 0.03 | 32 | 1001.2 |
| 20260507201531 | 18 | 215 | 1.6 | 19.3 | 0.00 | 0.53 | 0.03 | 33 | 1001.2 |
| 20260507201025 | 18 | 316 | 3.2 | 19.3 | 0.00 | 0.53 | 0.03 | 32 | 1001.2 |
| 20260507200527 | 18 | 215 | 0.0 | 19.3 | 0.00 | 0.53 | 0.03 | 32 | 1001.3 |
| 20260507200024 | 18 | 307 | 4.8 | 19.3 | 0.00 | 0.53 | 0.03 | 32 | 1001.3 |
| 20260507195524 | 18 | 309 | 0.0 | 8.0 | 0.00 | 0.53 | 0.03 | 35 | 1001.3 |
| 20260507195028 | 18 | 335 | 0.0 | 16.1 | 0.00 | 0.53 | 0.03 | 35 | 1001.3 |
| 20260507194523 | 18 | 275 | 1.6 | 16.1 | 0.00 | 0.53 | 0.03 | 35 | 1001.3 |
| 20260507194023 | 18 | 248 | 1.6 | 16.1 | 0.00 | 0.53 | 0.03 | 33 | 1001.3 |
| 20260507193524 | 18 | 323 | 1.6 | 12.9 | 0.00 | 0.53 | 0.03 | 35 | 1001.6 |
| 20260507193026 | 18 | 224 | 0.0 | 16.1 | 0.00 | 0.53 | 0.03 | 34 | 1001.6 |
| 20260507192521 | 18 | 235 | 0.0 | 19.3 | 0.00 | 0.53 | 0.03 | 34 | 1001.6 |
| 20260507192021 | 18 | 264 | 4.8 | 19.3 | 0.00 | 0.53 | 0.03 | 35 | 1001.7 |
| 20260507191523 | 18 | 315 | 4.8 | 19.3 | 0.00 | 0.53 | 0.03 | 33 | 1001.7 |
| 20260507191022 | 18 | 300 | 3.2 | 19.3 | 0.00 | 0.53 | 0.03 | 33 | 1001.7 |
| 20260507190520 | 18 | 331 | 0.0 | 9.7 | 0.00 | 0.53 | 0.03 | 35 | 1001.7 |
| 20260507190020 | 18 | 243 | 0.0 | 19.3 | 0.00 | 0.53 | 0.03 | 35 | 1001.7 |
| 20260507185519 | 18 | 317 | 3.2 | 19.3 | 0.00 | 0.53 | 0.03 | 37 | 1001.7 |
| 20260507185020 | 18 | 331 | 0.0 | 19.3 | 0.00 | 0.53 | 0.03 | 36 | 1001.8 |
| 20260507184518 | 18 | 294 | 4.8 | 19.3 | 0.00 | 0.53 | 0.03 | 35 | 1001.8 |
| 20260507184019 | 18 | 294 | 0.0 | 11.3 | 0.00 | 0.53 | 0.03 | 38 | 1001.8 |
| 20260507183518 | 18 | 269 | 1.6 | 11.3 | 0.00 | 0.53 | 0.03 | 35 | 1001.9 |
| 20260507183028 | 18 | 233 | 1.6 | 22.5 | 0.00 | 0.53 | 0.03 | 36 | 1001.9 |
| 20260507182517 | 18 | 225 | 6.4 | 22.5 | 0.00 | 0.53 | 0.03 | 34 | 1001.9 |
| 20260507182017 | 18 | 341 | 1.6 | 16.1 | 0.00 | 0.53 | 0.03 | 37 | 1001.9 |
| 20260507181516 | 18 | 260 | 1.6 | 17.7 | 0.00 | 0.53 | 0.03 | 34 | 1001.9 |
| 20260507181016 | 18 | 256 | 3.2 | 16.1 | 0.00 | 0.53 | 0.03 | 35 | 1001.9 |
| 20260507180516 | 18 | 311 | 1.6 | 20.9 | 0.00 | 0.53 | 0.03 | 37 | 1002.0 |
| 20260507180017 | 18 | 301 | 6.4 | 22.5 | 0.00 | 0.53 | 0.03 | 35 | 1002.0 |
| 20260507175515 | 18 | 312 | 1.6 | 16.1 | 0.00 | 0.53 | 0.03 | 39 | 1002.0 |
| 20260507175015 | 18 | 302 | 6.4 | 17.7 | 0.00 | 0.53 | 0.03 | 37 | 1001.9 |
| 20260507174514 | 18 | 302 | 4.8 | 17.7 | 0.00 | 0.53 | 0.03 | 34 | 1001.9 |
| 20260507174013 | 18 | 325 | 3.2 | 14.5 | 0.00 | 0.53 | 0.03 | 37 | 1001.9 |
| 20260507173514 | 18 | 319 | 4.8 | 19.3 | 0.00 | 0.53 | 0.03 | 37 | 1002.1 |
| 20260507173013 | 18 | 321 | 1.6 | 12.9 | 0.00 | 0.53 | 0.03 | 41 | 1002.1 |
| 20260507172512 | 18 | 319 | 4.8 | 12.9 | 0.00 | 0.53 | 0.03 | 38 | 1002.1 |
| 20260507172011 | 18 | 297 | 1.6 | 17.7 | 0.00 | 0.53 | 0.03 | 37 | 1002.2 |
| 20260507171511 | 17 | 326 | 3.2 | 17.7 | 0.00 | 0.53 | 0.03 | 44 | 1002.2 |
| 20260507171009 | 17 | 355 | 6.4 | 20.9 | 0.00 | 0.53 | 0.03 | 43 | 1002.2 |
| 20260507170509 | 17 | 257 | 9.7 | 20.9 | 0.00 | 0.53 | 0.03 | 46 | 1002.3 |
| 20260507170007 | 17 | 205 | 4.8 | 19.3 | 0.00 | 0.53 | 0.03 | 45 | 1002.3 |
| 20260507165507 | 17 | 223 | 3.2 | 19.3 | 0.00 | 0.53 | 0.03 | 48 | 1002.3 |
| 20260507165005 | 17 | 223 | 8.0 | 19.3 | 0.00 | 0.53 | 0.03 | 51 | 1002.5 |
| 20260507164508 | 17 | 269 | 4.8 | 14.5 | 0.00 | 0.53 | 0.03 | 50 | 1002.5 |
| 20260507164004 | 16 | 271 | 1.6 | 14.5 | 0.00 | 0.53 | 0.03 | 53 | 1002.5 |
| 20260507163506 | 16 | 256 | 3.2 | 20.9 | 0.00 | 0.53 | 0.03 | 54 | 1002.7 |
| 20260507163004 | 15 | 219 | 8.0 | 20.9 | 0.00 | 0.53 | 0.03 | 55 | 1002.7 |
| 20260507162503 | 16 | 250 | 6.4 | 17.7 | 0.00 | 0.53 | 0.03 | 55 | 1002.7 |
| 20260507162006 | 16 | 290 | 1.6 | 9.7 | 0.00 | 0.53 | 0.03 | 56 | 1002.8 |
| 20260507161502 | 16 | 286 | 4.8 | 12.9 | 0.00 | 0.53 | 0.03 | 53 | 1002.8 |
| 20260507161002 | 16 | 297 | 4.8 | 16.1 | 0.00 | 0.53 | 0.03 | 56 | 1002.8 |
| 20260507160506 | 16 | 299 | 3.2 | 14.5 | 0.00 | 0.53 | 0.03 | 52 | 1003.0 |
| 20260507160003 | 16 | 273 | 4.8 | 14.5 | 0.00 | 0.53 | 0.03 | 54 | 1003.0 |
| 20260507155503 | 16 | 315 | 8.0 | 16.1 | 0.00 | 0.53 | 0.03 | 55 | 1003.0 |
| 20260507155001 | 15 | 276 | 4.8 | 16.1 | 0.00 | 0.53 | 0.03 | 56 | 1003.1 |
| 20260507154501 | 16 | 270 | 3.2 | 14.5 | 0.00 | 0.53 | 0.03 | 52 | 1003.1 |
| 20260507154002 | 16 | 302 | 6.4 | 14.5 | 0.00 | 0.53 | 0.03 | 52 | 1003.1 |
| 20260507153501 | 16 | 210 | 8.0 | 20.9 | 0.00 | 0.53 | 0.03 | 50 | 1003.2 |
| 20260507153000 | 16 | 275 | 8.0 | 20.9 | 0.00 | 0.53 | 0.03 | 51 | 1003.2 |
| 20260507152601 | 16 | 234 | 3.2 | 11.3 | 0.00 | 0.53 | 0.03 | 51 | 1003.2 |
| 20260507152105 | 16 | 251 | 1.6 | 14.5 | 0.00 | 0.53 | 0.03 | 49 | 1003.4 |
| 20260507151604 | 16 | 223 | 1.6 | 16.1 | 0.00 | 0.53 | 0.03 | 51 | 1003.4 |
| 20260507151100 | 16 | 180 | 3.2 | 16.1 | 0.00 | 0.53 | 0.03 | 49 | 1003.4 |
| 20260507150559 | 16 | 331 | 1.6 | 14.5 | 0.00 | 0.53 | 0.03 | 52 | 1003.7 |
| 20260507150059 | 16 | 211 | 1.6 | 24.1 | 0.00 | 0.53 | 0.03 | 52 | 1003.7 |
| 20260507145601 | 16 | 221 | 9.7 | 24.1 | 0.00 | 0.53 | 0.03 | 52 | 1003.7 |
| 20260507145057 | 16 | 265 | 1.6 | 14.5 | 0.00 | 0.53 | 0.03 | 55 | 1003.6 |
| 20260507144603 | 16 | 315 | 3.2 | 16.1 | 0.00 | 0.53 | 0.03 | 55 | 1003.6 |
| 20260507144056 | 16 | 274 | 4.8 | 16.1 | 0.00 | 0.53 | 0.03 | 52 | 1003.6 |
| 20260507143554 | 16 | 228 | 6.4 | 14.5 | 0.00 | 0.53 | 0.03 | 56 | 1003.6 |
| 20260507143107 | 15 | 273 | 3.2 | 14.5 | 0.00 | 0.53 | 0.03 | 58 | 1003.6 |
| 20260507142553 | 15 | 257 | 1.6 | 11.3 | 0.00 | 0.53 | 0.03 | 56 | 1003.6 |
| 20260507142053 | 15 | 268 | 3.2 | 12.9 | 0.00 | 0.53 | 0.03 | 55 | 1003.5 |
| 20260507141608 | 15 | 227 | 3.2 | 14.5 | 0.00 | 0.53 | 0.03 | 57 | 1003.5 |
| 20260507141053 | 15 | 216 | 1.6 | 14.5 | 0.00 | 0.53 | 0.03 | 60 | 1003.5 |
| 20260507140549 | 14 | 314 | 0.0 | 14.5 | 0.00 | 0.53 | 0.03 | 61 | 1003.4 |
| 20260507140048 | 14 | 220 | 3.2 | 14.5 | 0.00 | 0.53 | 0.03 | 62 | 1003.4 |
| 20260507135549 | 14 | 233 | 0.0 | 9.7 | 0.00 | 0.53 | 0.03 | 61 | 1003.4 |
| 20260507135047 | 14 | 255 | 0.0 | 9.7 | 0.00 | 0.53 | 0.03 | 63 | 1003.6 |
| 20260507134546 | 13 | 341 | 0.0 | 9.7 | 0.00 | 0.53 | 0.03 | 65 | 1003.6 |
| 20260507134044 | 13 | 292 | 1.6 | 9.7 | 0.00 | 0.53 | 0.03 | 63 | 1003.6 |
| 20260507133544 | 13 | 360 | 0.0 | 11.3 | 0.00 | 0.53 | 0.03 | 67 | 1004.0 |
| 20260507133044 | 13 | 319 | 1.6 | 11.3 | 0.00 | 0.53 | 0.03 | 67 | 1004.0 |
| 20260507132544 | 13 | 336 | 0.0 | 9.7 | 0.00 | 0.53 | 0.03 | 66 | 1004.0 |
| 20260507132042 | 13 | 311 | 1.6 | 9.7 | 0.00 | 0.53 | 0.03 | 66 | 1004.0 |
| 20260507131552 | 12 | 283 | 1.6 | 14.5 | 0.00 | 0.53 | 0.03 | 66 | 1004.0 |
| 20260507131044 | 12 | 300 | 0.0 | 14.5 | 0.00 | 0.53 | 0.03 | 67 | 1004.0 |
| 20260507130542 | 12 | 300 | 1.6 | 14.5 | 0.00 | 0.53 | 0.03 | 69 | 1004.1 |
| 20260507130045 | 12 | 229 | 0.0 | 11.3 | 0.00 | 0.53 | 0.03 | 69 | 1004.1 |
| 20260507125542 | 12 | 355 | 0.0 | 11.3 | 0.00 | 0.53 | 0.03 | 70 | 1004.1 |
| 20260507125045 | 12 | 304 | 0.0 | 11.3 | 0.00 | 0.53 | 0.03 | 70 | 1004.0 |
| 20260507124540 | 12 | 278 | 0.0 | 11.3 | 0.00 | 0.53 | 0.03 | 70 | 1004.0 |
| 20260507124040 | 11 | 331 | 3.2 | 12.9 | 0.00 | 0.53 | 0.03 | 71 | 1004.0 |
| 20260507123540 | 11 | 234 | 0.0 | 12.9 | 0.00 | 0.53 | 0.03 | 72 | 1004.1 |
| 20260507123043 | 11 | 333 | 0.0 | 12.9 | 0.00 | 0.53 | 0.03 | 72 | 1004.1 |
| 20260507122539 | 11 | 283 | 0.0 | 12.9 | 0.00 | 0.53 | 0.03 | 73 | 1004.1 |
| 20260507122039 | 11 | 360 | 0.0 | 12.9 | 0.00 | 0.53 | 0.03 | 74 | 1004.2 |
| 20260507121543 | 10 | 298 | 0.0 | 11.3 | 0.00 | 0.53 | 0.03 | 73 | 1004.2 |
| 20260507121038 | 10 | 250 | 4.8 | 11.3 | 0.00 | 0.53 | 0.03 | 75 | 1004.2 |
| 20260507120537 | 10 | 300 | 0.0 | 6.4 | 0.00 | 0.53 | 0.03 | 77 | 1004.1 |
| 20260507120037 | 10 | 288 | 0.0 | 8.0 | 0.00 | 0.53 | 0.03 | 76 | 1004.1 |
| 20260507115538 | 10 | 251 | 4.8 | 8.0 | 0.00 | 0.53 | 0.03 | 77 | 1004.1 |
| 20260507115037 | 10 | 286 | 0.0 | 11.3 | 0.00 | 0.53 | 0.03 | 76 | 1004.2 |
| 20260507114536 | 10 | 292 | 1.6 | 12.9 | 0.00 | 0.53 | 0.03 | 78 | 1004.2 |
| 20260507114036 | 10 | 298 | 4.8 | 12.9 | 0.00 | 0.53 | 0.03 | 79 | 1004.2 |
| 20260507113536 | 10 | 295 | 4.8 | 9.7 | 0.00 | 0.53 | 0.03 | 79 | 1003.8 |
| 20260507113036 | 10 | 303 | 0.0 | 14.5 | 0.00 | 0.53 | 0.03 | 80 | 1003.8 |
| 20260507112536 | 10 | 256 | 1.6 | 14.5 | 0.00 | 0.53 | 0.03 | 80 | 1003.8 |
| 20260507112034 | 9 | 306 | 3.2 | 9.7 | 0.00 | 0.53 | 0.03 | 81 | 1004.1 |
| 20260507111535 | 9 | 328 | 0.0 | 8.0 | 0.00 | 0.53 | 0.03 | 81 | 1004.1 |
| 20260507111034 | 9 | 329 | 0.0 | 8.0 | 0.00 | 0.53 | 0.03 | 81 | 1004.1 |
| 20260507110534 | 9 | 269 | 0.0 | 3.2 | 0.00 | 0.53 | 0.03 | 81 | 1003.9 |
| 20260507110034 | 9 | 267 | 0.0 | 11.3 | 0.00 | 0.53 | 0.03 | 81 | 1003.9 |
| 20260507105533 | 9 | 313 | 3.2 | 11.3 | 0.03 | 0.53 | 0.03 | 82 | 1003.9 |
| 20260507105033 | 9 | 330 | 0.0 | 0.0 | 0.03 | 0.53 | 0.03 | 82 | 1003.6 |
| 20260507104536 | 9 | 330 | 0.0 | 8.0 | 0.03 | 0.53 | 0.03 | 82 | 1003.6 |
| 20260507104032 | 9 | 330 | 1.6 | 8.0 | 0.03 | 0.53 | 0.03 | 82 | 1003.6 |
| 20260507103531 | 9 | 302 | 0.0 | 12.9 | 0.03 | 0.53 | 0.03 | 82 | 1003.5 |
| 20260507103032 | 9 | 306 | 4.8 | 12.9 | 0.03 | 0.53 | 0.03 | 82 | 1003.5 |
| 20260507102531 | 9 | 329 | 3.2 | 12.9 | 0.03 | 0.53 | 0.03 | 82 | 1003.5 |
| 20260507102033 | 9 | 280 | 3.2 | 12.9 | 0.03 | 0.53 | 0.03 | 82 | 1003.3 |
| 20260507101529 | 9 | 331 | 1.6 | 11.3 | 0.03 | 0.53 | 0.03 | 82 | 1003.3 |
| 20260507101028 | 9 | 334 | 0.0 | 6.4 | 0.03 | 0.53 | 0.03 | 83 | 1003.3 |
| 20260507100528 | 9 | 292 | 1.6 | 6.4 | 0.03 | 0.53 | 0.03 | 83 | 1003.8 |
| 20260507100036 | 9 | 283 | 1.6 | 8.0 | 0.03 | 0.53 | 0.03 | 82 | 1003.8 |
| 20260507095530 | 9 | 286 | 3.2 | 11.3 | 0.00 | 0.51 | 0.00 | 82 | 1003.8 |
| 20260507095027 | 9 | 297 | 3.2 | 9.7 | 0.00 | 0.51 | 0.00 | 83 | 1003.5 |
| 20260507094525 | 9 | 270 | 1.6 | 9.7 | 0.00 | 0.51 | 0.00 | 83 | 1003.5 |
| 20260507094026 | 9 | 320 | 1.6 | 9.7 | 0.00 | 0.51 | 0.00 | 83 | 1003.5 |
| 20260507093525 | 9 | 238 | 0.0 | 11.3 | 0.00 | 0.51 | 0.00 | 83 | 1003.7 |
| 20260507093024 | 9 | 250 | 0.0 | 11.3 | 0.00 | 0.51 | 0.00 | 83 | 1003.7 |
| 20260507092524 | 9 | 272 | 3.2 | 9.7 | 0.00 | 0.51 | 0.00 | 82 | 1003.7 |
| 20260507092027 | 10 | 250 | 0.0 | 9.7 | 0.00 | 0.51 | 0.00 | 83 | 1003.6 |
| 20260507091528 | 10 | 228 | 0.0 | 14.5 | 0.00 | 0.51 | 0.00 | 83 | 1003.6 |
| 20260507091023 | 10 | 332 | 3.2 | 12.9 | 0.00 | 0.51 | 0.00 | 83 | 1003.6 |
| 20260507090526 | 10 | 282 | 0.0 | 9.7 | 0.00 | 0.51 | 0.00 | 82 | 1003.2 |
| 20260507090022 | 10 | 228 | 0.0 | 6.4 | 0.00 | 0.51 | 0.00 | 82 | 1003.2 |
| 20260507085522 | 9 | 229 | 0.0 | 9.7 | 0.00 | 0.51 | 0.00 | 83 | 1003.2 |
| 20260507085022 | 9 | 320 | 0.0 | 9.7 | 0.00 | 0.51 | 0.00 | 83 | 1003.2 |
| 20260507084521 | 10 | 281 | 3.2 | 9.7 | 0.00 | 0.51 | 0.00 | 84 | 1003.2 |
| 20260507084023 | 10 | 226 | 3.2 | 9.7 | 0.00 | 0.51 | 0.00 | 84 | 1003.2 |
| 20260507083519 | 10 | 323 | 1.6 | 12.9 | 0.00 | 0.51 | 0.00 | 84 | 1003.1 |
| 20260507083019 | 10 | 278 | 1.6 | 12.9 | 0.00 | 0.51 | 0.00 | 84 | 1003.1 |
| 20260507082517 | 10 | 296 | 0.0 | 9.7 | 0.00 | 0.51 | 0.00 | 84 | 1003.1 |
| 20260507082016 | 10 | 279 | 0.0 | 9.7 | 0.00 | 0.51 | 0.00 | 84 | 1003.3 |
| 20260507081516 | 10 | 258 | 1.6 | 8.0 | 0.00 | 0.51 | 0.00 | 84 | 1003.3 |
| 20260507081016 | 10 | 252 | 1.6 | 11.3 | 0.00 | 0.51 | 0.00 | 83 | 1003.3 |
| 20260507080516 | 10 | 278 | 3.2 | 14.5 | 0.00 | 0.51 | 0.00 | 82 | 1003.0 |
| 20260507080014 | 10 | 283 | 3.2 | 17.7 | 0.00 | 0.51 | 0.00 | 81 | 1003.0 |
| 20260507075514 | 10 | 273 | 0.0 | 17.7 | 0.00 | 0.51 | 0.00 | 81 | 1003.0 |
| 20260507075013 | 10 | 304 | 8.0 | 14.5 | 0.00 | 0.51 | 0.00 | 81 | 1002.9 |
| 20260507074513 | 10 | 321 | 4.8 | 19.3 | 0.00 | 0.51 | 0.00 | 81 | 1002.9 |
| 20260507074014 | 10 | 275 | 6.4 | 19.3 | 0.00 | 0.51 | 0.00 | 81 | 1002.9 |
| 20260507073511 | 10 | 288 | 3.2 | 12.9 | 0.00 | 0.51 | 0.00 | 81 | 1002.7 |
| 20260507073011 | 10 | 282 | 3.2 | 12.9 | 0.00 | 0.51 | 0.00 | 81 | 1002.7 |
| 20260507072510 | 11 | 295 | 4.8 | 12.9 | 0.00 | 0.51 | 0.00 | 81 | 1002.7 |
| 20260507072009 | 11 | 287 | 0.0 | 12.9 | 0.00 | 0.51 | 0.00 | 82 | 1002.7 |
| 20260507071511 | 11 | 253 | 4.8 | 12.9 | 0.00 | 0.51 | 0.00 | 83 | 1002.7 |
| 20260507071011 | 11 | 313 | 6.4 | 12.9 | 0.00 | 0.51 | 0.00 | 84 | 1002.7 |
| 20260507070507 | 11 | 235 | 3.2 | 12.9 | 0.00 | 0.51 | 0.00 | 85 | 1002.6 |
| 20260507070010 | 11 | 264 | 3.2 | 12.9 | 0.00 | 0.51 | 0.00 | 85 | 1002.6 |
| 20260507065505 | 11 | 219 | 0.0 | 6.4 | 0.00 | 0.51 | 0.00 | 86 | 1002.6 |
| 20260507065006 | 11 | 263 | 0.0 | 12.9 | 0.00 | 0.51 | 0.00 | 87 | 1002.4 |
| 20260507064504 | 11 | 292 | 3.2 | 12.9 | 0.00 | 0.51 | 0.00 | 87 | 1002.4 |
| 20260507064004 | 11 | 252 | 1.6 | 6.4 | 0.00 | 0.51 | 0.00 | 87 | 1002.4 |
| 20260507063504 | 11 | 269 | 0.0 | 0.0 | 0.00 | 0.51 | 0.00 | 87 | 1002.3 |
| 20260507063004 | 11 | 269 | 0.0 | 6.4 | 0.00 | 0.51 | 0.00 | 87 | 1002.3 |
| 20260507062503 | 11 | 269 | 1.6 | 6.4 | 0.00 | 0.51 | 0.00 | 87 | 1002.3 |
| 20260507062003 | 11 | 260 | 1.6 | 6.4 | 0.00 | 0.51 | 0.00 | 87 | 1002.2 |
| 20260507061503 | 11 | 259 | 0.0 | 8.0 | 0.00 | 0.51 | 0.00 | 87 | 1002.2 |
| 20260507061005 | 11 | 288 | 0.0 | 8.0 | 0.00 | 0.51 | 0.00 | 86 | 1002.2 |
| 20260507060501 | 11 | 315 | 0.0 | 9.7 | 0.00 | 0.51 | 0.00 | 86 | 1002.6 |
| 20260507060001 | 11 | 259 | 0.0 | 16.1 | 0.00 | 0.51 | 0.00 | 86 | 1002.6 |
| 20260507055502 | 11 | 265 | 0.0 | 8.0 | 0.00 | 0.51 | 0.00 | 87 | 1002.6 |
| 20260507055001 | 11 | 263 | 1.6 | 8.0 | 0.00 | 0.51 | 0.00 | 87 | 1002.4 |
| 20260507054608 | 11 | 242 | 0.0 | 8.0 | 0.00 | 0.51 | 0.00 | 87 | 1002.4 |
| 20260507054059 | 11 | 242 | 0.0 | 9.7 | 0.00 | 0.51 | 0.00 | 87 | 1002.4 |
| 20260507053600 | 11 | 270 | 0.0 | 9.7 | 0.00 | 0.51 | 0.00 | 87 | 1002.7 |
| 20260507053110 | 11 | 276 | 0.0 | 8.0 | 0.00 | 0.51 | 0.00 | 87 | 1002.7 |
| 20260507052558 | 12 | 265 | 1.6 | 8.0 | 0.00 | 0.51 | 0.00 | 87 | 1002.7 |
| 20260507052058 | 12 | 292 | 0.0 | 11.3 | 0.00 | 0.51 | 0.00 | 87 | 1002.8 |
| 20260507051607 | 12 | 267 | 1.6 | 11.3 | 0.00 | 0.51 | 0.00 | 87 | 1002.8 |
| 20260507051056 | 12 | 265 | 0.0 | 17.7 | 0.00 | 0.51 | 0.00 | 87 | 1002.8 |
| 20260507050556 | 12 | 279 | 0.0 | 11.3 | 0.00 | 0.51 | 0.00 | 87 | 1002.6 |
| 20260507050056 | 12 | 296 | 1.6 | 12.9 | 0.00 | 0.51 | 0.00 | 88 | 1002.6 |
| 20260507045555 | 12 | 288 | 3.2 | 12.9 | 0.00 | 0.51 | 0.00 | 87 | 1002.6 |
| 20260507045055 | 12 | 272 | 0.0 | 12.9 | 0.00 | 0.51 | 0.00 | 88 | 1002.3 |
| 20260507044557 | 12 | 254 | 0.0 | 14.5 | 0.00 | 0.51 | 0.00 | 87 | 1002.3 |
| 20260507044056 | 12 | 285 | 6.4 | 16.1 | 0.00 | 0.51 | 0.00 | 87 | 1002.3 |
| 20260507043551 | 12 | 298 | 6.4 | 16.1 | 0.00 | 0.51 | 0.00 | 87 | 1002.6 |
| 20260507043052 | 13 | 311 | 4.8 | 19.3 | 0.00 | 0.51 | 0.00 | 88 | 1002.6 |
| 20260507042547 | 13 | 281 | 4.8 | 14.5 | 0.00 | 0.51 | 0.00 | 89 | 1002.6 |
| 20260507042046 | 13 | 318 | 4.8 | 14.5 | 0.00 | 0.51 | 0.51 | 89 | 1002.5 |
| 20260507041545 | 13 | 280 | 6.4 | 14.5 | 0.00 | 0.51 | 0.51 | 89 | 1002.5 |
| 20260507041044 | 14 | 275 | 4.8 | 14.5 | 0.00 | 0.51 | 0.51 | 89 | 1002.5 |
| 20260507040542 | 15 | 307 | 4.8 | 14.5 | 0.00 | 0.51 | 0.51 | 91 | 1002.0 |
| 20260507040042 | 15 | 217 | 0.0 | 8.0 | 0.00 | 0.51 | 0.51 | 91 | 1002.0 |
| 20260507035541 | 15 | 249 | 0.0 | 8.0 | 0.00 | 0.51 | 0.51 | 91 | 1002.0 |
| 20260507035041 | 15 | 244 | 1.6 | 8.0 | 0.00 | 0.51 | 0.51 | 91 | 1001.8 |
| 20260507034540 | 15 | 221 | 0.0 | 16.1 | 0.00 | 0.51 | 0.51 | 91 | 1001.8 |
| 20260507034039 | 15 | 302 | 4.8 | 16.1 | 0.00 | 0.51 | 0.51 | 91 | 1001.8 |
| 20260507033539 | 15 | 269 | 4.8 | 19.3 | 0.00 | 0.51 | 0.51 | 92 | 1001.6 |
| 20260507033038 | 15 | 200 | 0.0 | 12.9 | 0.00 | 0.51 | 0.51 | 92 | 1001.6 |
| 20260507032538 | 15 | 279 | 1.6 | 9.7 | 0.00 | 0.51 | 0.51 | 92 | 1001.6 |
| 20260507032039 | 15 | 231 | 0.0 | 16.1 | 0.00 | 0.51 | 0.51 | 92 | 1001.3 |
| 20260507031538 | 15 | 236 | 6.4 | 16.1 | 0.00 | 0.51 | 0.51 | 91 | 1001.3 |
| 20260507031037 | 15 | 219 | 4.8 | 16.1 | 0.00 | 0.51 | 0.51 | 91 | 1001.3 |
| 20260507030537 | 15 | 218 | 6.4 | 16.1 | 0.00 | 0.51 | 0.51 | 91 | 1001.3 |
| 20260507030038 | 15 | 216 | 4.8 | 16.1 | 0.00 | 0.51 | 0.51 | 91 | 1001.3 |
| 20260507025537 | 15 | 222 | 4.8 | 12.9 | 0.00 | 0.51 | 0.51 | 91 | 1001.3 |
| 20260507025039 | 15 | 225 | 3.2 | 16.1 | 0.00 | 0.51 | 0.51 | 91 | 1001.5 |
| 20260507024535 | 15 | 223 | 3.2 | 16.1 | 0.00 | 0.51 | 0.51 | 91 | 1001.5 |
| 20260507024034 | 15 | 233 | 0.0 | 16.1 | 0.00 | 0.51 | 0.51 | 91 | 1001.5 |
| 20260507023534 | 15 | 184 | 4.8 | 14.5 | 0.00 | 0.51 | 0.51 | 91 | 1001.4 |
| 20260507023036 | 15 | 217 | 1.6 | 11.3 | 0.00 | 0.51 | 0.51 | 91 | 1001.4 |
| 20260507022534 | 15 | 215 | 1.6 | 12.9 | 0.00 | 0.51 | 0.51 | 91 | 1001.4 |
| 20260507022034 | 15 | 187 | 6.4 | 14.5 | 0.00 | 0.51 | 0.51 | 91 | 1001.4 |
| 20260507021539 | 15 | 206 | 4.8 | 14.5 | 0.00 | 0.51 | 0.51 | 91 | 1001.4 |
| 20260507021033 | 15 | 190 | 1.6 | 19.3 | 0.00 | 0.51 | 0.51 | 91 | 1001.4 |
| 20260507020533 | 15 | 190 | 6.4 | 16.1 | 0.00 | 0.51 | 0.51 | 91 | 1001.6 |
| 20260507020035 | 15 | 178 | 1.6 | 24.1 | 0.00 | 0.51 | 0.51 | 91 | 1001.6 |
| 20260507015535 | 15 | 204 | 3.2 | 24.1 | 0.00 | 0.51 | 0.51 | 91 | 1001.6 |
| 20260507015034 | 15 | 257 | 4.8 | 12.9 | 0.03 | 0.51 | 0.51 | 91 | 1001.6 |
| 20260507014531 | 15 | 207 | 3.2 | 14.5 | 0.03 | 0.51 | 0.51 | 91 | 1001.6 |
| 20260507014031 | 15 | 192 | 3.2 | 17.7 | 0.03 | 0.51 | 0.51 | 91 | 1001.6 |
| 20260507013530 | 15 | 204 | 6.4 | 17.7 | 0.03 | 0.51 | 0.51 | 91 | 1001.7 |
| 20260507013030 | 15 | 226 | 1.6 | 16.1 | 0.03 | 0.51 | 0.51 | 91 | 1001.7 |
| 20260507012534 | 15 | 215 | 6.4 | 19.3 | 0.03 | 0.51 | 0.51 | 91 | 1001.7 |
| 20260507012030 | 15 | 200 | 6.4 | 16.1 | 0.03 | 0.51 | 0.51 | 91 | 1001.7 |
| 20260507011534 | 15 | 185 | 6.4 | 16.1 | 0.03 | 0.51 | 0.51 | 91 | 1001.7 |
| 20260507011028 | 15 | 187 | 1.6 | 12.9 | 0.03 | 0.51 | 0.51 | 91 | 1001.7 |
| 20260507010530 | 15 | 174 | 3.2 | 12.9 | 0.03 | 0.51 | 0.51 | 91 | 1001.7 |
| 20260507010038 | 15 | 184 | 4.8 | 22.5 | 0.03 | 0.51 | 0.51 | 91 | 1001.7 |
| 20260507005528 | 15 | 209 | 9.7 | 22.5 | 0.03 | 0.51 | 0.51 | 91 | 1001.7 |
| 20260507005026 | 15 | 178 | 6.4 | 17.7 | 0.00 | 0.48 | 0.48 | 91 | 1001.7 |
| 20260507004529 | 15 | 198 | 4.8 | 14.5 | 0.00 | 0.48 | 0.48 | 91 | 1001.7 |
| 20260507004026 | 15 | 183 | 4.8 | 16.1 | 0.03 | 0.48 | 0.48 | 91 | 1001.7 |
| 20260507003525 | 15 | 189 | 6.4 | 16.1 | 0.03 | 0.48 | 0.48 | 91 | 1001.7 |
| 20260507003025 | 15 | 213 | 4.8 | 17.7 | 0.08 | 0.48 | 0.48 | 91 | 1001.7 |
| 20260507002524 | 15 | 201 | 6.4 | 22.5 | 0.13 | 0.48 | 0.48 | 91 | 1001.7 |
| 20260507002028 | 15 | 207 | 6.4 | 14.5 | 0.13 | 0.48 | 0.48 | 91 | 1001.5 |
| 20260507001523 | 15 | 189 | 4.8 | 14.5 | 0.13 | 0.48 | 0.48 | 91 | 1001.5 |
| 20260507001022 | 15 | 183 | 4.8 | 17.7 | 0.15 | 0.48 | 0.48 | 91 | 1001.5 |
| 20260507000522 | 15 | 186 | 4.8 | 12.9 | 0.15 | 0.48 | 0.48 | 91 | 1001.6 |
| 20260507000023 | 15 | 195 | 1.6 | 14.5 | 0.18 | 0.48 | 0.48 | 91 | 1001.6 |
| 20260506235522 | 15 | 169 | 4.8 | 14.5 | 0.18 | 0.48 | 0.48 | 91 | 1001.6 |
| 20260506235021 | 15 | 165 | 6.4 | 12.9 | 0.18 | 0.48 | 0.48 | 91 | 1001.5 |
| 20260506234521 | 15 | 186 | 6.4 | 12.9 | 0.18 | 0.48 | 0.48 | 91 | 1001.5 |
| 20260506234021 | 15 | 184 | 3.2 | 16.1 | 0.15 | 0.46 | 0.46 | 91 | 1001.5 |
| 20260506233521 | 15 | 202 | 8.0 | 19.3 | 0.15 | 0.43 | 0.43 | 91 | 1001.5 |
| 20260506233022 | 15 | 194 | 6.4 | 22.5 | 0.10 | 0.38 | 0.38 | 91 | 1001.5 |
| 20260506232518 | 15 | 178 | 6.4 | 22.5 | 0.08 | 0.36 | 0.36 | 90 | 1001.5 |
| 20260506232018 | 15 | 205 | 8.0 | 22.5 | 0.08 | 0.36 | 0.36 | 90 | 1001.7 |
| 20260506231517 | 16 | 209 | 4.8 | 22.5 | 0.08 | 0.36 | 0.36 | 90 | 1001.7 |
| 20260506231020 | 16 | 237 | 4.8 | 16.1 | 0.05 | 0.33 | 0.33 | 90 | 1001.7 |
| 20260506230516 | 16 | 187 | 6.4 | 12.9 | 0.05 | 0.33 | 0.33 | 90 | 1001.8 |
| 20260506230024 | 16 | 209 | 6.4 | 14.5 | 0.03 | 0.30 | 0.30 | 90 | 1001.8 |
| 20260506225516 | 16 | 182 | 6.4 | 14.5 | 0.03 | 0.30 | 0.30 | 90 | 1001.8 |
| 20260506225016 | 16 | 228 | 4.8 | 25.7 | 0.03 | 0.30 | 0.30 | 90 | 1001.8 |
| 20260506224515 | 16 | 187 | 6.4 | 25.7 | 0.03 | 0.30 | 0.30 | 89 | 1001.8 |
| 20260506224013 | 16 | 198 | 4.8 | 19.3 | 0.03 | 0.30 | 0.30 | 89 | 1001.8 |